TimeMST,TemperatureF,Dew PointF,Humidity,Sea Level PressureIn,VisibilityMPH,Wind Direction,Wind SpeedMPH,Gust SpeedMPH,PrecipitationIn,Events,Conditions,WindDirDegrees,DateUTC
12:53 AM,23.0,16.0,74,30.12,10.0,Calm,Calm,-,N/A,,Clear,0,2012-12-02 07:53:00
1:53 AM,21.9,15.1,75,30.12,10.0,Calm,Calm,-,N/A,,Clear,0,2012-12-02 08:53:00
2:53 AM,19.9,14.0,78,30.14,10.0,Calm,Calm,-,N/A,,Clear,0,2012-12-02 09:53:00
3:53 AM,19.9,15.1,81,30.13,10.0,Calm,Calm,-,N/A,,Clear,0,2012-12-02 10:53:00
4:53 AM,16.0,10.9,81,30.16,10.0,Calm,Calm,-,N/A,,Clear,0,2012-12-02 11:53:00
5:53 AM,19.9,14.0,78,30.18,10.0,Calm,Calm,-,N/A,,Clear,0,2012-12-02 12:53:00
6:53 AM,17.1,14.0,88,30.21,9.0,Calm,Calm,-,N/A,,Clear,0,2012-12-02 13:53:00
7:53 AM,15.1,10.9,84,30.24,10.0,Calm,Calm,-,N/A,,Clear,0,2012-12-02 14:53:00
8:53 AM,28.0,17.1,63,30.20,10.0,Calm,Calm,-,N/A,,Clear,0,2012-12-02 15:53:00
9:53 AM,43.0,19.9,40,30.15,10.0,Calm,Calm,-,N/A,,Clear,0,2012-12-02 16:53:00
10:53 AM,52.0,19.9,28,30.10,10.0,South,8.1,-,N/A,,Clear,180,2012-12-02 17:53:00
11:53 AM,55.9,18.0,23,30.05,10.0,WSW,16.1,21.9,N/A,,Clear,240,2012-12-02 18:53:00
12:53 PM,55.9,17.1,22,30.03,10.0,SW,17.3,26.5,N/A,,Clear,230,2012-12-02 19:53:00
1:53 PM,55.9,17.1,22,30.03,10.0,SW,15.0,25.3,N/A,,Clear,230,2012-12-02 20:53:00
2:53 PM,55.9,18.0,23,30.02,10.0,SW,12.7,-,N/A,,Clear,230,2012-12-02 21:53:00
3:53 PM,55.0,17.1,23,30.02,10.0,SW,9.2,-,N/A,,Clear,220,2012-12-02 22:53:00
4:53 PM,48.0,16.0,28,30.06,10.0,South,5.8,-,N/A,,Clear,190,2012-12-02 23:53:00
5:53 PM,42.1,15.1,34,30.08,10.0,South,3.5,-,N/A,,Clear,190,2012-12-03 00:53:00
6:53 PM,39.9,17.1,40,30.10,10.0,Calm,Calm,-,N/A,,Clear,0,2012-12-03 01:53:00
7:53 PM,39.9,18.0,41,30.12,10.0,SW,6.9,-,N/A,,Clear,230,2012-12-03 02:53:00
8:53 PM,39.9,19.9,45,30.07,10.0,South,6.9,-,N/A,,Clear,190,2012-12-03 03:53:00
9:53 PM,42.1,23.0,47,29.99,10.0,SSW,9.2,-,N/A,,Clear,200,2012-12-03 04:53:00
10:53 PM,42.1,24.1,49,29.96,10.0,SSW,5.8,-,N/A,,Clear,210,2012-12-03 05:53:00
11:53 PM,41.0,24.1,51,29.94,10.0,SSW,6.9,-,N/A,,Clear,200,2012-12-03 06:53:00